Time,TemperatureF,DewpointF,PressureIn,WindDirection,WindDirectionDegrees,WindSpeedMPH,WindSpeedGustMPH,Humidity,HourlyPrecipIn,Conditions,Clouds,dailyrainin,SoftwareType,DateUTC
2015-07-05 00:02:00,75.2,65.1,29.75,North,-9999,-999.9,-999.0,71,-99.99,,,-99.99,meteohub,2015-07-05 04:02:00,
2015-07-05 00:07:00,75.2,65.1,29.75,North,-9999,-999.9,-999.0,71,-99.99,,,-99.99,meteohub,2015-07-05 04:07:00,
2015-07-05 00:12:00,75.2,65.1,29.75,North,-9999,-999.9,-999.0,71,-99.99,,,-99.99,meteohub,2015-07-05 04:12:00,
2015-07-05 00:17:00,75.0,65.3,29.75,North,-9999,-999.9,-999.0,72,-99.99,,,-99.99,meteohub,2015-07-05 04:17:00,
2015-07-05 00:22:00,75.0,65.3,29.75,North,-9999,-999.9,-999.0,72,-99.99,,,-99.99,meteohub,2015-07-05 04:22:00,
2015-07-05 00:27:00,74.8,65.1,29.75,North,-9999,-999.9,-999.0,72,-99.99,,,-99.99,meteohub,2015-07-05 04:27:00,
2015-07-05 00:32:00,74.8,65.1,29.75,North,-9999,-999.9,-999.0,72,-99.99,,,-99.99,meteohub,2015-07-05 04:32:00,
2015-07-05 00:37:00,74.8,65.1,29.75,North,-9999,-999.9,-999.0,72,-99.99,,,-99.99,meteohub,2015-07-05 04:37:00,
2015-07-05 00:42:00,74.8,65.1,29.78,North,-9999,-999.9,-999.0,72,-99.99,,,-99.99,meteohub,2015-07-05 04:42:00,
2015-07-05 00:47:00,74.8,65.1,29.78,North,-9999,-999.9,-999.0,72,-99.99,,,-99.99,meteohub,2015-07-05 04:47:00,
2015-07-05 00:52:00,74.8,65.1,29.78,North,-9999,-999.9,-999.0,72,-99.99,,,-99.99,meteohub,2015-07-05 04:52:00,
2015-07-05 00:57:00,74.8,64.8,29.75,North,-9999,-999.9,-999.0,71,-99.99,,,-99.99,meteohub,2015-07-05 04:57:00,
2015-07-05 01:02:00,74.8,65.1,29.75,North,-9999,-999.9,-999.0,72,-99.99,,,-99.99,meteohub,2015-07-05 05:02:00,
2015-07-05 01:07:00,74.8,65.1,29.75,North,-9999,-999.9,-999.0,72,-99.99,,,-99.99,meteohub,2015-07-05 05:07:00,
2015-07-05 01:12:00,74.7,65.1,29.75,North,-9999,-999.9,-999.0,72,-99.99,,,-99.99,meteohub,2015-07-05 05:12:00,
2015-07-05 01:17:00,74.3,65.1,29.75,North,-9999,-999.9,-999.0,73,-99.99,,,-99.99,meteohub,2015-07-05 05:17:00,
2015-07-05 01:22:00,74.3,65.1,29.75,North,-9999,-999.9,-999.0,73,-99.99,,,-99.99,meteohub,2015-07-05 05:22:00,
2015-07-05 01:27:00,74.1,64.9,29.75,North,-9999,-999.9,-999.0,73,-99.99,,,-99.99,meteohub,2015-07-05 05:27:00,
2015-07-05 01:32:00,73.9,65.1,29.75,North,-9999,-999.9,-999.0,74,-99.99,,,-99.99,meteohub,2015-07-05 05:32:00,
2015-07-05 01:37:00,73.9,65.1,29.75,North,-9999,-999.9,-999.0,74,-99.99,,,-99.99,meteohub,2015-07-05 05:37:00,
2015-07-05 01:42:00,73.8,65.3,29.75,North,-9999,-999.9,-999.0,75,-99.99,,,-99.99,meteohub,2015-07-05 05:42:00,
2015-07-05 01:47:00,73.8,65.7,29.75,North,-9999,-999.9,-999.0,76,-99.99,,,-99.99,meteohub,2015-07-05 05:47:00,
2015-07-05 01:52:00,73.6,65.5,29.75,North,-9999,-999.9,-999.0,76,-99.99,,,-99.99,meteohub,2015-07-05 05:52:00,